Tracking 18032 objects as of 26-March-2017
HD Live streaming from Space Station
objects crossing your sky now

COSMOS 2251 DEB

Track COSMOS 2251 DEB now!
10-day predictions


NORAD ID: 34447
Int'l Code: 1993-036SQ
Perigee: 626.7 km
Apogee: 663.0 km
Inclination: 74.0 °
Period: 97.5 minutes
Semi major axis: 7015 km
RCS: 0.038 m2 (small)
Launch date: June 16, 1993
Source: Commonwealth of Independent States (former USSR) (CIS)
Launch site: PLESETSK MISSILE AND SPACE COMPLEX (PKMTR)

Note: This is SATELLITE DEBRIS
Your satellite tracking list
Your tracking list is empty





NASA's NSSDC Master Catalog

Two Line Element Set (TLE):
1 34447U 93036SQ  17084.66337448 +.00003021 +00000-0 +42744-3 0  9994
2 34447 074.0278 160.2186 0025855 354.3903 122.1711 14.77345642429236
Source of the keplerian elements: AFSPC